sat.trackr.live / text

‹ back to catalog

KUIPER-00087

NORAD 64833 · 2025-151T

PAYLOAD ACTIVE UNKNOWN

§ Identity

Operator
Country
US
Launch date
2025-07-16
Launch site
AFETR
Launch vehicle
Mass (kg)
RCS (m²)

External: N2YO · Heavens-Above · Gunter

§ Orbital elements

Epoch: 2026-05-25T02:58:44.666976Z

Period
97.30 min
Inclination
51.8986°
Eccentricity
0.0000611
Mean motion
14.79936121 rev/d
Perigee alt
629.1 km
Apogee alt
630.0 km
Semi-major
7,007.7 km
B*
3.2887e-4
RAAN
302.5849°
Arg perigee
105.4008°
Mean anomaly
254.7022°
Rev number
4,689

§ Raw data

KUIPER-000871 64833U 25151T   26145.12412809  .00002287  00000+0  32887-3 0  99922 64833  51.8986 302.5849 0000611 105.4008 254.7022 14.79936121 46892

JSON: /api/v1/satellites/64833 · /tle

For live sub-satellite position, see the globe view (requires WebGL).

§ Visibility from observer

Set your observer location to see the next 7 days of passes ≥ 10°. The values pass through the URL so the page stays shareable.

No JS? Fill the form by hand. The geolocation button needs JavaScript.